Location: Banff
(51.1667°N, 115.5667°W)
Time: 19:49:58
(UTC+00:00)

Vanguard 1 Rocket - Pass Details

Date: 30 November 2020
Orbit: 655 x 4221 km, 34.3° (Epoch: 17 January)

Event Time Altitude Azimuth Distance (km) Brightness Sun altitude
Exits shadow 11:16:19 41° 214° (SSW) 4,592 10.5 -37.7°
Maximum altitude 11:21:27 46° 185° (S) 4,057 10.4 -36.9°
Drops below altitude 10° 11:35:33 10° 119° (ESE) 4,840 11.6 -34.8°
Sets 11:38:42 0° 113° (ESE) 5,454 12.1 -34.3°
